Regional Weather Roundup
Issued by NWS Green Bay, WI

Home | Current Version | Previous Version | Text Only | Print | Product List | Glossary On
Versions: 1 2 3 4 5 6 7 8 9 10 11 12 13 14 15 16 17 18 19 20 21 22 23 24 25 26 27 28 29 30 31 32 33 34 35 36 37 38 39 40 41 42 43 44 45 46 47 48 49 50
000
ASUS43 KGRB 200959
RWRGRB

NORTH-CENTRAL AND NORTHEAST WISCONSIN REGIONAL WEATHER ROUNDUP
NATIONAL WEATHER SERVICE GREEN BAY WI
400 AM CST SAT DEC 20 2014

WIZ005-009-010>012-018-019-201100-
NORTH CENTRAL WISCONSIN

CITY           SKY/WX    TMP DP  RH WIND       PRES   REMARKS
IRONWOOD       CLOUDY    25  21  86 S10       30.15R
MANITOWISH WTR NOT AVBL
ARBOR VITAE    NOT AVBL
EAGLE RIVER    NOT AVBL
LAND O LAKES   NOT AVBL
RHINELANDER    CLOUDY    21  19  92 SW6       30.19S FOG
PHILLIPS       NOT AVBL
ANTIGO         NOT AVBL
TOMAHAWK       NOT AVBL
MERRILL        NOT AVBL
$$

WIZ013-073-201100-
NORTHEAST WISCONSIN

CITY           SKY/WX    TMP DP  RH WIND       PRES   REMARKS
IRON MOUNTAIN  CLOUDY    15  12  88 CALM      30.21F FOG
MARINETTE      CLOUDY    14  10  85 CALM      30.26S
$$

WIZ017-030-035>037-045-201100-
CENTRAL WISCONSIN

CITY           SKY/WX    TMP DP  RH WIND       PRES   REMARKS
MEDFORD        NOT AVBL
WAUSAU         CLOUDY    23  21  92 S5        30.21S
MOSINEE        NOT AVBL
MARSHFIELD     CLOUDY    24  22  91 S6        30.21S FOG
WISC RAPIDS    CLOUDY    24  20  84 S3        30.25F
STEVENS POINT  NOT AVBL
WAUPACA        NOT AVBL
SHAWANO        NOT AVBL
CLINTONVILLE   NOT AVBL
$$

WIZ038-039-048-051-201100-
FOX VALLEY

CITY           SKY/WX    TMP DP  RH WIND       PRES   REMARKS
NWS GREEN BAY  MOCLDY    22  19  89 CALM      30.27F
APPLETON       NOT AVBL
OSHKOSH        CLOUDY    21  18  88 CALM      30.26F
FOND DU LAC    MOCLDY    20  16  84 CALM      30.26F
$$

WIZ022-050-052-201100-
EAST CENTRAL WISCONSIN

CITY           SKY/WX    TMP DP  RH WIND       PRES   REMARKS
STURGEON BAY   CLOUDY    23  19  86 CALM      30.28S
MANITOWOC      NOT AVBL
SHEBOYGAN      CLOUDY    27  21  78 NW3       30.27S
$$

LMZ563-521-522-541>543-201100-
LAKESHORE

STATION/POSITION TIME  TEMP    WIND        PRES    VSBY  WAVE
                       AIR SEA DIR/SP/G                  HT/PER
                 (UTC) (F)     (DEG/KT/KT) (MB)    (MI)  (FT/S)
SHEBOYGAN LKSHOR 0900   29 33  270/  6/  7 1026.1R
KEWAUNEE LKSHORE 0900   27      CALM  /  3 1023.9S
ALGOMA MARINA    0900          330/  6/  7   N/A
NORTHPORT PIER   0900   22     220/  1/  3 1025.1S
CHAMBERS ISLAND  0900   17        CALM     1025.1S
MENOMINEE LKSHOR 0900   23     240/  4/  5 1025.4F
$$


USA.gov is the U.S. government's official web portal to all federal, state and local government web resources and services.